| time (UTC) | temp F | wind direction | speed MPH | gust MPH | rain 1hr in | rain 24hr in | rain mn in | humidity % | barometer mb |
| 20260508154503 | 72 | 158 | 9.0 | 12.0 | 0.00 | 0.00 | 0.00 | 77 | 1013.7 |
| 20260508153105 | 71 | 155 | 9.0 | 13.0 | 0.00 | 0.00 | 0.00 | 79 | 1013.7 |
| 20260508151606 | 70 | 165 | 6.0 | 10.0 | 0.00 | 0.00 | 0.00 | 79 | 1013.8 |
| 20260508150054 | 70 | 161 | 5.0 | 11.0 | 0.00 | 0.00 | 0.00 | 81 | 1013.8 |
| 20260508144552 | 69 | 150 | 9.0 | 14.0 | 0.00 | 0.00 | 0.00 | 83 | 1014.0 |
| 20260508143045 | 67 | 121 | 4.0 | 8.0 | 0.00 | 0.00 | 0.00 | 86 | 1013.9 |
| 20260508141549 | 65 | 78 | 2.0 | 8.0 | 0.00 | 0.00 | 0.00 | 88 | 1014.3 |
| 20260508140040 | 64 | 75 | 5.0 | 8.0 | 0.00 | 0.00 | 0.00 | 88 | 1014.1 |
| 20260508134534 | 62 | 136 | 2.0 | 8.0 | 0.00 | 0.00 | 0.00 | 88 | 1014.2 |
| 20260508133030 | 61 | 103 | 3.0 | 7.0 | 0.00 | 0.00 | 0.00 | 89 | 1014.4 |
| 20260508131528 | 61 | 148 | 4.0 | 8.0 | 0.00 | 0.00 | 0.00 | 89 | 1014.5 |
| 20260508130027 | 60 | 120 | 3.0 | 7.0 | 0.00 | 0.00 | 0.00 | 90 | 1014.6 |
| 20260508124525 | 58 | 105 | 2.0 | 4.0 | 0.00 | 0.00 | 0.00 | 89 | 1014.9 |
| 20260508123028 | 58 | 56 | 2.0 | 5.0 | 0.00 | 0.00 | 0.00 | 89 | 1015.3 |
| 20260508121525 | 58 | 16 | 4.0 | 9.0 | 0.00 | 0.00 | 0.00 | 89 | 1015.7 |
| 20260508120034 | 58 | 341 | 3.0 | 5.0 | 0.00 | 0.00 | 0.00 | 89 | 1015.3 |
| 20260508114522 | 58 | 145 | 0.0 | 3.0 | 0.00 | 0.01 | 0.00 | 88 | 1014.7 |
| 20260508113022 | 57 | 145 | 0.0 | 3.0 | 0.00 | 0.01 | 0.00 | 88 | 1014.3 |
| 20260508111522 | 57 | 138 | 2.0 | 7.0 | 0.00 | 0.01 | 0.00 | 88 | 1013.8 |
| 20260508110021 | 58 | 146 | 1.0 | 3.0 | 0.00 | 0.01 | 0.00 | 88 | 1013.5 |
| 20260508104520 | 58 | 150 | 5.0 | 8.0 | 0.00 | 0.01 | 0.00 | 88 | 1013.4 |
| 20260508103027 | 58 | 138 | 5.0 | 8.0 | 0.00 | 0.01 | 0.00 | 88 | 1013.6 |
| 20260508101523 | 57 | 123 | 3.0 | 6.0 | 0.00 | 0.01 | 0.00 | 87 | 1014.1 |
| 20260508100115 | 57 | 96 | 0.0 | 3.0 | 0.00 | 0.01 | 0.00 | 86 | 1014.6 |
| 20260508094514 | 57 | 95 | 2.0 | 4.0 | 0.00 | 0.01 | 0.00 | 87 | 1014.8 |
| 20260508093014 | 56 | 46 | 1.0 | 3.0 | 0.00 | 0.01 | 0.00 | 86 | 1015.0 |
| 20260508091513 | 56 | 302 | 4.0 | 7.0 | 0.00 | 0.01 | 0.00 | 87 | 1015.7 |
| 20260508090010 | 57 | 121 | 0.0 | 1.0 | 0.00 | 0.01 | 0.00 | 85 | 1014.5 |
| 20260508084508 | 57 | 121 | 2.0 | 4.0 | 0.00 | 0.01 | 0.00 | 84 | 1014.1 |
| 20260508083005 | 57 | 125 | 1.0 | 2.0 | 0.00 | 0.01 | 0.00 | 83 | 1014.5 |
| 20260508081504 | 57 | 125 | 1.0 | 3.0 | 0.00 | 0.01 | 0.00 | 83 | 1014.5 |
| 20260508080003 | 57 | 125 | 2.0 | 3.0 | 0.00 | 0.01 | 0.00 | 83 | 1014.4 |
| 20260508074502 | 57 | 125 | 1.0 | 4.0 | 0.00 | 0.01 | 0.00 | 82 | 1014.7 |
| 20260508073101 | 57 | 126 | 0.0 | 0.0 | 0.00 | 0.01 | 0.00 | 82 | 1014.8 |
| 20260508071558 | 57 | 126 | 0.0 | 0.0 | 0.00 | 0.01 | 0.00 | 82 | 1015.0 |
| 20260508070056 | 58 | 126 | 0.0 | 0.0 | 0.00 | 0.01 | 0.00 | 81 | 1015.2 |
| 20260508064557 | 58 | 126 | 0.0 | 0.0 | 0.00 | 0.01 | 0.00 | 81 | 1015.1 |
| 20260508063052 | 59 | 126 | 0.0 | 1.0 | 0.00 | 0.01 | 0.00 | 81 | 1015.3 |
| 20260508061555 | 59 | 126 | 0.0 | 3.0 | 0.00 | 0.01 | 0.00 | 80 | 1015.1 |
| 20260508060051 | 59 | 126 | 2.0 | 4.0 | 0.00 | 0.01 | 0.00 | 80 | 1015.1 |
| 20260508054548 | 60 | 126 | 1.0 | 3.0 | 0.00 | 0.01 | 0.00 | 80 | 1015.4 |
| 20260508053044 | 60 | 126 | 1.0 | 2.0 | 0.00 | 0.01 | 0.00 | 80 | 1015.3 |
| 20260508051551 | 60 | 126 | 1.0 | 4.0 | 0.00 | 0.01 | 0.00 | 80 | 1015.4 |
| 20260508050040 | 61 | 123 | 2.0 | 4.0 | 0.00 | 0.01 | 0.00 | 80 | 1015.4 |
| 20260508044539 | 61 | 122 | 3.0 | 6.0 | 0.00 | 0.01 | 0.01 | 80 | 1015.5 |
| 20260508043042 | 62 | 105 | 3.0 | 6.0 | 0.00 | 0.01 | 0.01 | 78 | 1015.4 |
| 20260508041538 | 62 | 105 | 2.0 | 4.0 | 0.00 | 0.01 | 0.01 | 78 | 1015.4 |
| 20260508040040 | 62 | 106 | 3.0 | 4.0 | 0.00 | 0.01 | 0.01 | 78 | 1015.4 |
| 20260508034537 | 62 | 107 | 2.0 | 4.0 | 0.00 | 0.01 | 0.01 | 77 | 1015.3 |
| 20260508033036 | 62 | 107 | 2.0 | 4.0 | 0.00 | 0.01 | 0.01 | 77 | 1015.1 |
| 20260508031535 | 63 | 108 | 2.0 | 4.0 | 0.00 | 0.01 | 0.01 | 77 | 1015.2 |
| 20260508030035 | 63 | 108 | 3.0 | 4.0 | 0.00 | 0.01 | 0.01 | 77 | 1015.1 |
| 20260508024544 | 63 | 109 | 4.0 | 7.0 | 0.00 | 0.06 | 0.01 | 76 | 1015.1 |
| 20260508023033 | 63 | 104 | 3.0 | 7.0 | 0.00 | 0.06 | 0.01 | 76 | 1014.9 |
| 20260508021536 | 64 | 92 | 3.0 | 4.0 | 0.00 | 0.06 | 0.01 | 75 | 1015.1 |
| 20260508020034 | 64 | 92 | 3.0 | 4.0 | 0.00 | 0.06 | 0.01 | 75 | 1014.9 |
| 20260508014545 | 65 | 90 | 1.0 | 4.0 | 0.00 | 0.06 | 0.01 | 74 | 1015.1 |
| 20260508013033 | 65 | 77 | 0.0 | 0.0 | 0.00 | 0.06 | 0.01 | 74 | 1014.9 |
| 20260508011538 | 66 | 76 | 0.0 | 0.0 | 0.00 | 0.06 | 0.01 | 73 | 1014.9 |
| 20260508010032 | 67 | 74 | 0.0 | 1.0 | 0.00 | 0.06 | 0.01 | 73 | 1015.1 |
| 20260508004531 | 67 | 72 | 2.0 | 4.0 | 0.00 | 0.06 | 0.01 | 72 | 1014.6 |
| 20260508003050 | 68 | 100 | 3.0 | 6.0 | 0.00 | 0.06 | 0.01 | 71 | 1014.5 |
| 20260508001530 | 69 | 108 | 2.0 | 4.0 | 0.00 | 0.06 | 0.01 | 70 | 1014.7 |
| 20260508000027 | 70 | 110 | 0.0 | 3.0 | 0.00 | 0.06 | 0.01 | 70 | 1015.0 |
| 20260507234526 | 70 | 109 | 0.0 | 3.0 | 0.00 | 0.06 | 0.01 | 69 | 1015.0 |
| 20260507233032 | 71 | 90 | 1.0 | 4.0 | 0.00 | 0.06 | 0.01 | 69 | 1015.0 |
| 20260507231529 | 71 | 90 | 3.0 | 7.0 | 0.00 | 0.06 | 0.01 | 68 | 1015.0 |
| 20260507230024 | 71 | 106 | 3.0 | 6.0 | 0.00 | 0.06 | 0.01 | 68 | 1015.0 |
| 20260507224524 | 71 | 110 | 2.0 | 8.0 | 0.00 | 0.06 | 0.01 | 69 | 1015.0 |
| 20260507223022 | 71 | 41 | 1.0 | 8.0 | 0.00 | 0.06 | 0.01 | 69 | 1015.2 |
| 20260507221523 | 71 | 80 | 3.0 | 6.0 | 0.00 | 0.06 | 0.01 | 68 | 1015.3 |
| 20260507220020 | 71 | 38 | 2.0 | 5.0 | 0.00 | 0.06 | 0.01 | 70 | 1015.2 |
| 20260507214519 | 71 | 49 | 3.0 | 6.0 | 0.00 | 0.06 | 0.01 | 69 | 1015.3 |
| 20260507213020 | 71 | 67 | 4.0 | 8.0 | 0.00 | 0.06 | 0.01 | 68 | 1015.4 |
| 20260507211518 | 72 | 60 | 4.0 | 9.0 | 0.00 | 0.06 | 0.01 | 68 | 1015.3 |
| 20260507210016 | 71 | 115 | 0.0 | 6.0 | 0.00 | 0.06 | 0.01 | 68 | 1015.6 |
| 20260507204513 | 71 | 96 | 3.0 | 8.0 | 0.00 | 0.06 | 0.01 | 69 | 1015.9 |
| 20260507203015 | 71 | 65 | 3.0 | 9.0 | 0.00 | 0.06 | 0.01 | 69 | 1016.0 |
| 20260507201512 | 71 | 33 | 1.0 | 5.0 | 0.00 | 0.06 | 0.01 | 70 | 1016.0 |
| 20260507200010 | 71 | 136 | 2.0 | 8.0 | 0.00 | 0.06 | 0.01 | 70 | 1016.1 |
| 20260507194507 | 71 | 32 | 3.0 | 10.0 | 0.00 | 0.06 | 0.01 | 71 | 1016.5 |
| 20260507193006 | 70 | 50 | 5.0 | 7.0 | 0.00 | 0.06 | 0.01 | 71 | 1016.8 |
| 20260507191508 | 70 | 56 | 6.0 | 11.0 | 0.00 | 0.06 | 0.01 | 71 | 1016.8 |
| 20260507190004 | 70 | 55 | 0.0 | 9.0 | 0.00 | 0.06 | 0.01 | 71 | 1016.9 |
| 20260507184505 | 70 | 51 | 8.0 | 12.0 | 0.00 | 0.06 | 0.01 | 71 | 1016.9 |
| 20260507183003 | 69 | 24 | 6.0 | 13.0 | 0.00 | 0.06 | 0.01 | 72 | 1016.8 |
| 20260507181600 | 70 | 28 | 6.0 | 14.0 | 0.00 | 0.06 | 0.01 | 72 | 1017.2 |
| 20260507180101 | 69 | 46 | 4.0 | 12.0 | 0.00 | 0.06 | 0.01 | 73 | 1017.4 |
| 20260507174556 | 69 | 49 | 6.0 | 11.0 | 0.00 | 0.06 | 0.01 | 74 | 1017.5 |
| 20260507173056 | 68 | 355 | 3.0 | 12.0 | 0.00 | 0.06 | 0.01 | 75 | 1017.9 |
| 20260507171555 | 68 | 50 | 1.0 | 11.0 | 0.00 | 0.06 | 0.01 | 76 | 1018.4 |
| 20260507170048 | 67 | 16 | 6.0 | 11.0 | 0.00 | 0.06 | 0.01 | 77 | 1018.8 |
| 20260507164547 | 66 | 360 | 5.0 | 11.0 | 0.00 | 0.06 | 0.01 | 78 | 1018.7 |
| 20260507163042 | 65 | 25 | 7.0 | 11.0 | 0.00 | 0.06 | 0.01 | 80 | 1018.8 |
| 20260507161540 | 64 | 74 | 2.0 | 8.0 | 0.00 | 0.06 | 0.01 | 82 | 1018.8 |
| 20260507160038 | 63 | 85 | 7.0 | 13.0 | 0.00 | 0.06 | 0.01 | 81 | 1019.1 |